Simultaneous Nadir Overpasses (SNOs) Predictions

Prediction of SNOs between NOAA-19 and TERRA Satellite Orbit:

Table of predicted SNOs for the next 14.0 days since TLE Epoch: 8/8/2020
Index Date (NOAA-19) Time (NOAA-19) Lat,Lon (NOAA-19) SZA (NOAA-19 ) Date (TERRA) Time (TERRA) Lat,Lon (TERRA) SZA (TERRA ) Distance(km) Time Diff (sec)
1 08/10/2020 03:04:10 -79.72, -17.84 114.61 08/10/2020 03:05:23 -79.60, -17.31 114.64 17.16 73
2 08/10/2020 03:55:05 79.62, 150.50 65.42 08/10/2020 03:54:48 79.64, 150.63 65.44 3.39 17
3 08/12/2020 09:28:23 -79.64,-112.93 113.91 08/12/2020 09:28:33 -79.61,-113.00 113.94 3.12 10
4 08/14/2020 15:01:38 79.63, -16.10 66.80 08/14/2020 15:02:15 79.66, -16.09 66.83 2.99 37
5 08/14/2020 15:52:38 -79.61, 151.38 113.20 08/14/2020 15:51:43 -79.63, 151.29 113.21 2.27 55
6 08/16/2020 20:34:55 -79.66, 80.43 112.49 08/16/2020 20:35:59 -79.67, 80.54 112.45 2.67 64
7 08/16/2020 21:25:55 79.65,-112.23 67.53 08/16/2020 21:25:26 79.63,-112.10 67.51 3.24 29
8 08/19/2020 02:59:11 -79.66, -15.60 111.74 08/19/2020 02:59:10 -79.64, -15.47 111.75 3.44 1
9 08/21/2020 08:32:27 79.64, 81.37 69.02 08/21/2020 08:32:52 79.67, 81.33 69.05 3.29 25
